This is the latest recevied weather packets stored in our database for station/object Rana. If no packets are shown the sender has not sent any weather packets the latest 1 day(s).
| Time | Temp. | Humidity | Pressure | Rain* | Wind** | Luminosity | Snow |
|---|---|---|---|---|---|---|---|
| 1777955111 | 15° C | 56% | - | - | 1.79 m/s, 157° | - | - |
| 1777954813 | 15° C | 55% | - | - | 0.89 m/s, 190° | - | - |
| 1777954511 | 15° C | 55% | - | - | 0 m/s | - | - |
| 1777954210 | 15° C | 54% | - | - | 0.89 m/s, 190° | - | - |
| 1777953010 | 16.11° C | 54% | - | - | 0 m/s | - | - |
| 1777952709 | 16.11° C | 54% | - | - | 0 m/s | - | - |
| 1777952410 | 16.11° C | 54% | - | - | 0 m/s | - | - |
| 1777952111 | 15° C | 54% | - | - | 0 m/s | - | - |
| 1777951510 | 16.11° C | 54% | - | - | 0.89 m/s, 16° | - | - |
| 1777951211 | 16.11° C | 54% | - | - | 0 m/s | - | - |
| 1777950911 | 16.11° C | 54% | - | - | 0.89 m/s, 15° | - | - |
| 1777950610 | 16.11° C | 55% | - | - | 0 m/s | - | - |
| 1777950010 | 15° C | 55% | - | - | 0 m/s | - | - |
| 1777949709 | 16.11° C | 54% | - | - | 0.89 m/s, 88° | - | - |
| 1777949411 | 16.11° C | 54% | - | - | 1.79 m/s, 93° | - | - |
| 1777949110 | 16.11° C | 54% | - | - | 1.79 m/s, 87° | - | - |
| 1777948810 | 16.11° C | 54% | - | - | 3.13 m/s, 73° | - | - |
| 1777948510 | 16.11° C | 54% | - | - | 3.13 m/s, 63° | - | - |
| 1777948211 | 16.11° C | 54% | - | - | 4.02 m/s, 54° | - | - |
| 1777947909 | 16.11° C | 54% | - | - | 4.02 m/s, 50° | - | - |
| 1777947612 | 16.11° C | 55% | - | - | 3.13 m/s, 45° | - | - |
| 1777947310 | 16.11° C | 56% | - | - | 3.13 m/s, 42° | - | - |
| 1777947011 | 16.11° C | 56% | - | - | 3.13 m/s, 24° | - | - |
| 1777946710 | 15° C | 57% | - | - | 3.13 m/s, 13° | - | - |
| 1777946413 | 15° C | 58% | - | - | 4.02 m/s, 4° | - | - |
* Rain since midnight (hover to see other rain measurements)
** Current wind speed in m/s (hover to see current wind gust speed)